TimeEST,TemperatureF,Dew PointF,Humidity,Sea Level PressureIn,VisibilityMPH,Wind Direction,Wind SpeedMPH,Gust SpeedMPH,PrecipitationIn,Events,Conditions,WindDirDegrees,DateUTC
12:15 AM,24.8,23.0,93,30.33,10.0,Calm,Calm,-,N/A,,Clear,0,2012-12-31 05:15:00
12:35 AM,24.8,23.0,93,30.32,10.0,Calm,Calm,-,N/A,,Clear,0,2012-12-31 05:35:00
12:55 AM,23.0,21.2,93,30.32,10.0,Calm,Calm,-,N/A,,Clear,0,2012-12-31 05:55:00
1:15 AM,21.2,21.2,100,30.32,10.0,Calm,Calm,-,N/A,,Clear,0,2012-12-31 06:15:00
1:35 AM,21.2,21.2,100,30.33,10.0,Calm,Calm,-,N/A,,Clear,0,2012-12-31 06:35:00
1:55 AM,21.2,19.4,93,30.33,10.0,Calm,Calm,-,N/A,,Clear,0,2012-12-31 06:55:00
2:15 AM,21.2,21.2,100,30.34,10.0,Calm,Calm,-,N/A,,Clear,0,2012-12-31 07:15:00
2:55 AM,21.2,19.4,93,30.34,10.0,Calm,Calm,-,N/A,,Clear,0,2012-12-31 07:55:00
3:15 AM,19.4,17.6,93,30.32,10.0,Calm,Calm,-,N/A,,Clear,0,2012-12-31 08:15:00
3:35 AM,21.2,19.4,93,30.31,10.0,Calm,Calm,-,N/A,,Clear,0,2012-12-31 08:35:00
3:55 AM,21.2,21.2,100,30.30,10.0,Calm,Calm,-,N/A,,Clear,0,2012-12-31 08:55:00
4:15 AM,21.2,21.2,100,30.31,10.0,Calm,Calm,-,N/A,,Clear,0,2012-12-31 09:15:00
4:35 AM,21.2,19.4,93,30.32,10.0,Calm,Calm,-,N/A,,Clear,0,2012-12-31 09:35:00
4:55 AM,21.2,19.4,93,30.31,10.0,SSE,3.5,-,N/A,,Clear,160,2012-12-31 09:55:00
5:15 AM,21.2,21.2,100,30.30,10.0,Calm,Calm,-,N/A,,Clear,0,2012-12-31 10:15:00
5:35 AM,21.2,19.4,93,30.30,10.0,Calm,Calm,-,N/A,,Clear,0,2012-12-31 10:35:00
5:55 AM,21.2,21.2,100,30.30,10.0,Calm,Calm,-,N/A,,Clear,0,2012-12-31 10:55:00
6:15 AM,23.0,21.2,93,30.29,10.0,Calm,Calm,-,N/A,,Clear,0,2012-12-31 11:15:00
6:35 AM,21.2,21.2,100,30.27,10.0,SSE,3.5,-,N/A,,Clear,160,2012-12-31 11:35:00
6:55 AM,21.2,21.2,100,30.27,10.0,Calm,Calm,-,N/A,,Clear,0,2012-12-31 11:55:00
7:45 AM,21.2,19.4,93,30.27,10.0,Calm,Calm,-,N/A,,Clear,0,2012-12-31 12:45:00
8:55 AM,26.6,24.8,93,30.27,10.0,Calm,Calm,-,N/A,,Clear,0,2012-12-31 13:55:00
9:45 AM,30.2,26.6,86,30.27,10.0,Calm,Calm,-,N/A,,Clear,0,2012-12-31 14:45:00
10:55 AM,33.8,24.8,70,30.25,10.0,Calm,Calm,-,N/A,,Clear,0,2012-12-31 15:55:00
11:50 AM,35.6,24.8,65,30.21,10.0,Calm,Calm,-,N/A,,Clear,0,2012-12-31 16:50:00
12:50 PM,35.6,24.8,65,30.16,10.0,Calm,Calm,-,N/A,,Clear,0,2012-12-31 17:50:00
1:50 PM,37.4,24.8,60,30.14,10.0,Calm,Calm,-,N/A,,Clear,0,2012-12-31 18:50:00
2:50 PM,35.6,24.8,65,30.13,10.0,Calm,Calm,-,N/A,,Clear,0,2012-12-31 19:50:00
4:55 PM,35.6,26.6,70,30.11,10.0,Calm,Calm,-,N/A,,Overcast,0,2012-12-31 21:55:00
5:35 PM,35.6,26.6,70,30.09,10.0,Calm,Calm,-,N/A,,Overcast,0,2012-12-31 22:35:00
5:50 PM,35.6,28.4,75,30.09,10.0,Calm,Calm,-,N/A,,Overcast,0,2012-12-31 22:50:00
5:55 PM,35.6,26.6,70,30.09,10.0,Calm,Calm,-,N/A,,Overcast,0,2012-12-31 22:55:00
6:15 PM,35.6,28.4,75,30.09,10.0,SSW,3.5,-,N/A,,Overcast,200,2012-12-31 23:15:00
6:35 PM,35.6,28.4,75,30.08,10.0,Calm,Calm,-,N/A,,Overcast,0,2012-12-31 23:35:00
6:55 PM,35.6,28.4,75,30.09,10.0,Calm,Calm,-,N/A,,Overcast,0,2012-12-31 23:55:00
7:15 PM,35.6,28.4,75,30.07,10.0,Calm,Calm,-,N/A,,Mostly Cloudy,0,2013-01-01 00:15:00
7:35 PM,33.8,28.4,81,30.06,10.0,Calm,Calm,-,N/A,,Mostly Cloudy,0,2013-01-01 00:35:00
7:55 PM,33.8,28.4,81,30.06,10.0,Calm,Calm,-,N/A,,Mostly Cloudy,0,2013-01-01 00:55:00
8:15 PM,33.8,28.4,81,30.07,10.0,Calm,Calm,-,N/A,,Partly Cloudy,0,2013-01-01 01:15:00
8:35 PM,33.8,28.4,81,30.05,10.0,Calm,Calm,-,N/A,,Clear,0,2013-01-01 01:35:00
8:55 PM,33.8,28.4,81,30.04,10.0,SSE,4.6,-,N/A,,Clear,150,2013-01-01 01:55:00
9:15 PM,33.8,30.2,87,30.05,10.0,Calm,Calm,-,N/A,,Clear,0,2013-01-01 02:15:00
9:35 PM,33.8,28.4,81,30.04,10.0,Calm,Calm,-,N/A,,Clear,0,2013-01-01 02:35:00
10:15 PM,32.0,30.2,93,30.03,10.0,Calm,Calm,-,N/A,,Partly Cloudy,0,2013-01-01 03:15:00
10:35 PM,32.0,30.2,93,30.03,10.0,SSE,5.8,-,N/A,,Clear,150,2013-01-01 03:35:00
10:55 PM,32.0,30.2,93,30.03,10.0,Calm,Calm,-,N/A,,Clear,0,2013-01-01 03:55:00
11:15 PM,32.0,30.2,93,30.02,10.0,Calm,Calm,-,N/A,,Clear,0,2013-01-01 04:15:00
11:35 PM,32.0,30.2,93,30.02,10.0,Calm,Calm,-,N/A,,Clear,0,2013-01-01 04:35:00
11:55 PM,32.0,30.2,93,30.01,10.0,Calm,Calm,-,N/A,,Clear,0,2013-01-01 04:55:00